| time (UTC) | temp F | wind direction | speed knots | gust knots | rain 1hr in | rain 24hr in | rain mn in | humidity % | barometer mb |
| 20260508132810 | 53 | 132 | 3.5 | 7.0 | 0.00 | 0.00 | 0.00 | 90 | 1017.0 |
| 20260508131808 | 53 | 156 | 2.6 | 5.2 | 0.00 | 0.00 | 0.00 | 90 | 1017.1 |
| 20260508130811 | 54 | 178 | 2.6 | 6.1 | 0.00 | 0.00 | 0.00 | 90 | 1017.1 |
| 20260508125813 | 54 | 162 | 2.6 | 7.0 | 0.00 | 0.00 | 0.00 | 90 | 1017.0 |
| 20260508124809 | 54 | 164 | 2.6 | 6.1 | 0.00 | 0.00 | 0.00 | 90 | 1016.8 |
| 20260508123813 | 54 | 158 | 2.6 | 5.2 | 0.00 | 0.00 | 0.00 | 90 | 1016.7 |
| 20260508122816 | 54 | 159 | 1.7 | 6.1 | 0.00 | 0.00 | 0.00 | 90 | 1016.9 |
| 20260508121817 | 54 | 152 | 2.6 | 5.2 | 0.00 | 0.00 | 0.00 | 90 | 1016.8 |
| 20260508120817 | 54 | 130 | 2.6 | 7.0 | 0.00 | 0.00 | 0.00 | 90 | 1016.6 |
| 20260508115838 | 54 | 141 | 2.6 | 6.1 | 0.00 | 0.00 | 0.00 | 90 | 1016.7 |
| 20260508114814 | 55 | 184 | 1.7 | 5.2 | 0.00 | 0.00 | 0.00 | 90 | 1016.4 |
| 20260508113816 | 55 | 159 | 2.6 | 6.1 | 0.00 | 0.00 | 0.00 | 89 | 1016.5 |
| 20260508112758 | 55 | 128 | 2.6 | 7.0 | 0.00 | 0.00 | 0.00 | 89 | 1016.4 |
| 20260508111837 | 55 | 122 | 2.6 | 6.1 | 0.00 | 0.00 | 0.00 | 89 | 1016.4 |
| 20260508110800 | 55 | 141 | 2.6 | 7.0 | 0.00 | 0.00 | 0.00 | 89 | 1016.4 |
| 20260508105801 | 56 | 152 | 3.5 | 6.1 | 0.00 | 0.00 | 0.00 | 89 | 1016.4 |
| 20260508104822 | 56 | 170 | 2.6 | 5.2 | 0.00 | 0.00 | 0.00 | 89 | 1016.5 |
| 20260508103802 | 56 | 139 | 2.6 | 7.0 | 0.00 | 0.00 | 0.00 | 89 | 1016.5 |
| 20260508102805 | 56 | 149 | 1.7 | 4.3 | 0.00 | 0.00 | 0.00 | 88 | 1016.6 |
| 20260508101807 | 56 | 155 | 1.7 | 4.3 | 0.00 | 0.00 | 0.00 | 88 | 1016.5 |
| 20260508100812 | 56 | 143 | 2.6 | 5.2 | 0.00 | 0.00 | 0.00 | 88 | 1016.4 |
| 20260508095816 | 56 | 109 | 2.6 | 7.0 | 0.00 | 0.00 | 0.00 | 88 | 1016.3 |
| 20260508094801 | 57 | 109 | 1.7 | 5.2 | 0.00 | 0.00 | 0.00 | 88 | 1016.4 |
| 20260508093800 | 57 | 118 | 2.6 | 6.1 | 0.00 | 0.00 | 0.00 | 87 | 1016.3 |
| 20260508092803 | 57 | 114 | 2.6 | 6.1 | 0.00 | 0.00 | 0.00 | 87 | 1016.5 |
| 20260508091808 | 57 | 110 | 1.7 | 5.2 | 0.00 | 0.00 | 0.00 | 87 | 1016.4 |
| 20260508090802 | 57 | 124 | 0.9 | 5.2 | 0.00 | 0.00 | 0.00 | 86 | 1016.3 |
| 20260508085804 | 58 | 153 | 0.9 | 5.2 | 0.00 | 0.00 | 0.00 | 86 | 1016.1 |
| 20260508084808 | 58 | 134 | 1.7 | 5.2 | 0.00 | 0.00 | 0.00 | 86 | 1016.2 |
| 20260508083805 | 58 | 118 | 2.6 | 5.2 | 0.00 | 0.00 | 0.00 | 85 | 1016.2 |
| 20260508082810 | 59 | 145 | 0.9 | 5.2 | 0.00 | 0.00 | 0.00 | 85 | 1016.2 |
| 20260508081833 | 59 | 142 | 3.5 | 7.8 | 0.00 | 0.00 | 0.00 | 84 | 1016.3 |
| 20260508080808 | 60 | 179 | 1.7 | 7.0 | 0.00 | 0.00 | 0.00 | 83 | 1016.1 |
| 20260508075810 | 60 | 171 | 3.5 | 7.8 | 0.00 | 0.00 | 0.00 | 83 | 1016.1 |
| 20260508074809 | 61 | 161 | 3.5 | 7.0 | 0.00 | 0.00 | 0.00 | 83 | 1016.0 |
| 20260508073806 | 61 | 155 | 1.7 | 5.2 | 0.00 | 0.00 | 0.00 | 83 | 1015.8 |
| 20260508072802 | 61 | 162 | 0.9 | 6.1 | 0.00 | 0.00 | 0.00 | 82 | 1015.7 |
| 20260508071808 | 62 | 118 | 2.6 | 7.8 | 0.00 | 0.00 | 0.00 | 82 | 1015.7 |
| 20260508070809 | 62 | 214 | 2.6 | 5.2 | 0.00 | 0.00 | 0.00 | 81 | 1015.8 |
| 20260508065821 | 62 | 171 | 1.7 | 5.2 | 0.00 | 0.00 | 0.00 | 81 | 1015.8 |
| 20260508064809 | 63 | 170 | 1.7 | 4.3 | 0.00 | 0.00 | 0.00 | 80 | 1015.8 |
| 20260508063826 | 63 | 122 | 0.9 | 5.2 | 0.00 | 0.00 | 0.00 | 79 | 1015.6 |
| 20260508062819 | 63 | 162 | 2.6 | 7.0 | 0.00 | 0.00 | 0.00 | 79 | 1015.7 |
| 20260508061818 | 64 | 128 | 2.6 | 7.8 | 0.00 | 0.00 | 0.00 | 78 | 1015.6 |
| 20260508060802 | 64 | 142 | 2.6 | 8.7 | 0.00 | 0.00 | 0.00 | 78 | 1015.6 |
| 20260508055819 | 65 | 170 | 3.5 | 8.7 | 0.00 | 0.00 | 0.00 | 77 | 1015.6 |
| 20260508054816 | 66 | 152 | 3.5 | 7.0 | 0.00 | 0.00 | 0.00 | 76 | 1015.6 |
| 20260508053817 | 66 | 159 | 2.6 | 7.0 | 0.00 | 0.00 | 0.00 | 76 | 1015.6 |
| 20260508052815 | 67 | 130 | 3.5 | 7.0 | 0.00 | 0.00 | 0.00 | 75 | 1015.5 |
| 20260508051811 | 68 | 169 | 4.3 | 7.0 | 0.00 | 0.00 | 0.00 | 74 | 1015.3 |
| 20260508050833 | 68 | 174 | 1.7 | 6.1 | 0.00 | 0.00 | 0.00 | 72 | 1015.5 |
| 20260508045806 | 69 | 202 | 1.7 | 5.2 | 0.00 | 0.00 | 0.00 | 72 | 1015.5 |
| 20260508044802 | 70 | 176 | 1.7 | 3.5 | 0.00 | 0.00 | 0.00 | 71 | 1015.5 |
| 20260508043819 | 70 | 189 | 1.7 | 4.3 | 0.00 | 0.00 | 0.00 | 70 | 1015.2 |
| 20260508042811 | 71 | 171 | 2.6 | 6.1 | 0.00 | 0.00 | 0.00 | 69 | 1015.1 |
| 20260508041811 | 72 | 170 | 2.6 | 5.2 | 0.00 | 0.00 | 0.00 | 68 | 1015.1 |
| 20260508040811 | 72 | 177 | 2.6 | 4.3 | 0.00 | 0.00 | 0.00 | 67 | 1015.1 |
| 20260508035805 | 73 | 184 | 1.7 | 6.1 | 0.00 | 0.00 | 0.00 | 65 | 1014.7 |
| 20260508034804 | 74 | 169 | 2.6 | 6.1 | 0.00 | 0.00 | 0.00 | 65 | 1014.7 |
| 20260508033801 | 75 | 199 | 2.6 | 6.1 | 0.00 | 0.00 | 0.00 | 64 | 1014.6 |
| 20260508032807 | 76 | 211 | 1.7 | 7.0 | 0.00 | 0.00 | 0.00 | 63 | 1014.6 |
| 20260508031841 | 77 | 192 | 2.6 | 8.7 | 0.00 | 0.00 | 0.00 | 61 | 1014.4 |
| 20260508030816 | 79 | 174 | 1.7 | 8.7 | 0.00 | 0.00 | 0.00 | 59 | 1014.4 |
| 20260508025812 | 80 | 195 | 3.5 | 7.8 | 0.00 | 0.00 | 0.00 | 55 | 1014.2 |
| 20260508024810 | 81 | 154 | 0.9 | 3.5 | 0.00 | 0.00 | 0.00 | 51 | 1013.9 |
| 20260508023808 | 82 | 189 | 0.9 | 2.6 | 0.00 | 0.00 | 0.00 | 49 | 1014.0 |
| 20260508022801 | 83 | 198 | 0.0 | 2.6 | 0.00 | 0.00 | 0.00 | 47 | 1014.0 |
| 20260508021819 | 84 | 196 | 0.0 | 0.9 | 0.00 | 0.00 | 0.00 | 47 | 1014.0 |
| 20260508020817 | 84 | 197 | 0.9 | 3.5 | 0.00 | 0.00 | 0.00 | 47 | 1014.0 |
| 20260508015814 | 84 | 251 | 1.7 | 3.5 | 0.00 | 0.00 | 0.00 | 46 | 1013.9 |
| 20260508014811 | 85 | 77 | 0.0 | 2.6 | 0.00 | 0.00 | 0.00 | 43 | 1014.0 |
| 20260508013814 | 85 | 201 | 0.9 | 3.5 | 0.00 | 0.00 | 0.00 | 44 | 1014.0 |
| 20260508012809 | 85 | 229 | 0.9 | 3.5 | 0.00 | 0.00 | 0.00 | 44 | 1014.1 |
| 20260508011829 | 85 | 303 | 2.6 | 5.2 | 0.00 | 0.00 | 0.00 | 46 | 1014.1 |
| 20260508010807 | 85 | 270 | 1.7 | 7.0 | 0.00 | 0.00 | 0.00 | 44 | 1014.2 |
| 20260508005801 | 86 | 332 | 1.7 | 5.2 | 0.00 | 0.00 | 0.00 | 45 | 1014.2 |
| 20260508004808 | 86 | 260 | 1.7 | 5.2 | 0.00 | 0.00 | 0.00 | 44 | 1014.3 |
| 20260508003807 | 85 | 274 | 2.6 | 4.3 | 0.00 | 0.00 | 0.00 | 45 | 1014.3 |
| 20260508002815 | 86 | 315 | 1.7 | 4.3 | 0.00 | 0.00 | 0.00 | 44 | 1014.4 |
| 20260508001815 | 85 | 318 | 0.9 | 4.3 | 0.00 | 0.00 | 0.00 | 45 | 1014.4 |
| 20260508000810 | 85 | 339 | 2.6 | 6.1 | 0.00 | 0.00 | 0.00 | 46 | 1014.4 |
| 20260507235806 | 85 | 270 | 2.6 | 4.3 | 0.00 | 0.00 | 0.00 | 45 | 1014.6 |
| 20260507234806 | 85 | 116 | 2.6 | 6.1 | 0.00 | 0.00 | 0.00 | 45 | 1014.5 |
| 20260507233807 | 85 | 278 | 3.5 | 7.0 | 0.00 | 0.00 | 0.00 | 46 | 1014.5 |
| 20260507232801 | 85 | 297 | 3.5 | 6.1 | 0.00 | 0.00 | 0.00 | 45 | 1014.7 |
| 20260507231803 | 85 | 260 | 1.7 | 4.3 | 0.00 | 0.00 | 0.00 | 45 | 1014.8 |
| 20260507230805 | 85 | 174 | 2.6 | 5.2 | 0.00 | 0.00 | 0.00 | 47 | 1014.9 |
| 20260507225838 | 84 | 358 | 2.6 | 5.2 | 0.00 | 0.00 | 0.00 | 45 | 1015.0 |
| 20260507224816 | 84 | 81 | 0.0 | 6.1 | 0.00 | 0.00 | 0.00 | 48 | 1015.1 |
| 20260507223814 | 84 | 254 | 2.6 | 7.0 | 0.00 | 0.00 | 0.00 | 47 | 1015.3 |
| 20260507222809 | 83 | 260 | 1.7 | 8.7 | 0.00 | 0.00 | 0.00 | 48 | 1015.4 |
| 20260507221812 | 82 | 274 | 0.9 | 7.0 | 0.00 | 0.00 | 0.00 | 50 | 1015.8 |
| 20260507220811 | 82 | 180 | 1.7 | 7.0 | 0.00 | 0.00 | 0.00 | 50 | 1016.0 |
| 20260507215807 | 81 | 182 | 1.7 | 5.2 | 0.00 | 0.00 | 0.00 | 50 | 1016.1 |
| 20260507214828 | 81 | 343 | 3.5 | 5.2 | 0.00 | 0.00 | 0.00 | 52 | 1016.4 |
| 20260507213809 | 81 | 340 | 3.5 | 5.2 | 0.00 | 0.00 | 0.00 | 51 | 1016.4 |
| 20260507212806 | 80 | 283 | 1.7 | 4.3 | 0.00 | 0.00 | 0.00 | 53 | 1016.5 |
| 20260507211808 | 79 | 301 | 1.7 | 7.0 | 0.00 | 0.00 | 0.00 | 53 | 1016.7 |
| 20260507210836 | 79 | 27 | 2.6 | 6.1 | 0.00 | 0.00 | 0.00 | 54 | 1016.9 |
| 20260507205812 | 78 | 35 | 2.6 | 5.2 | 0.00 | 0.00 | 0.00 | 55 | 1017.0 |
| 20260507204835 | 78 | 303 | 2.6 | 4.3 | 0.00 | 0.00 | 0.00 | 56 | 1017.1 |
| 20260507203811 | 78 | 270 | 3.5 | 7.8 | 0.00 | 0.00 | 0.00 | 55 | 1017.2 |
| 20260507202811 | 78 | 45 | 2.6 | 5.2 | 0.00 | 0.00 | 0.00 | 56 | 1017.4 |
| 20260507201832 | 77 | 289 | 3.5 | 7.0 | 0.00 | 0.00 | 0.00 | 55 | 1017.5 |
| 20260507200812 | 77 | 1 | 2.6 | 6.1 | 0.00 | 0.00 | 0.00 | 56 | 1017.5 |
| 20260507195813 | 76 | 291 | 1.7 | 5.2 | 0.00 | 0.00 | 0.00 | 56 | 1017.6 |
| 20260507194814 | 77 | 156 | 2.6 | 7.0 | 0.00 | 0.00 | 0.00 | 57 | 1017.8 |
| 20260507193816 | 76 | 260 | 3.5 | 7.0 | 0.00 | 0.00 | 0.00 | 58 | 1017.9 |
| 20260507192817 | 75 | 326 | 3.5 | 7.0 | 0.00 | 0.00 | 0.00 | 59 | 1018.0 |
| 20260507191816 | 75 | 178 | 1.7 | 5.2 | 0.00 | 0.00 | 0.00 | 61 | 1018.0 |
| 20260507190839 | 75 | 226 | 3.5 | 7.0 | 0.00 | 0.00 | 0.00 | 59 | 1018.2 |
| 20260507185816 | 75 | 270 | 5.2 | 8.7 | 0.00 | 0.00 | 0.00 | 60 | 1018.2 |
| 20260507184814 | 74 | 237 | 1.7 | 7.0 | 0.00 | 0.00 | 0.00 | 61 | 1018.3 |
| 20260507183818 | 74 | 236 | 1.7 | 7.0 | 0.00 | 0.00 | 0.00 | 62 | 1018.3 |
| 20260507182836 | 74 | 309 | 1.7 | 5.2 | 0.00 | 0.00 | 0.00 | 61 | 1018.5 |
| 20260507181816 | 74 | 276 | 2.6 | 5.2 | 0.00 | 0.00 | 0.00 | 62 | 1018.5 |
| 20260507180814 | 72 | 226 | 0.9 | 5.2 | 0.00 | 0.00 | 0.00 | 63 | 1018.4 |
| 20260507175831 | 72 | 270 | 2.6 | 5.2 | 0.00 | 0.00 | 0.00 | 63 | 1018.5 |
| 20260507174813 | 72 | 185 | 1.7 | 7.8 | 0.00 | 0.00 | 0.00 | 65 | 1018.5 |
| 20260507173813 | 71 | 297 | 2.6 | 4.3 | 0.00 | 0.00 | 0.00 | 64 | 1018.6 |
| 20260507172831 | 71 | 249 | 0.9 | 7.0 | 0.00 | 0.00 | 0.00 | 63 | 1018.7 |
| 20260507171832 | 71 | 166 | 2.6 | 6.1 | 0.00 | 0.00 | 0.00 | 65 | 1018.7 |
| 20260507170816 | 70 | 200 | 2.6 | 6.1 | 0.00 | 0.00 | 0.00 | 68 | 1018.7 |
| 20260507165811 | 70 | 176 | 1.7 | 2.6 | 0.00 | 0.00 | 0.00 | 69 | 1018.7 |
| 20260507164815 | 69 | 43 | 0.9 | 3.5 | 0.00 | 0.00 | 0.00 | 71 | 1018.6 |
| 20260507163815 | 68 | 107 | 1.7 | 3.5 | 0.00 | 0.00 | 0.00 | 70 | 1018.7 |
| 20260507162813 | 68 | 265 | 0.9 | 5.2 | 0.00 | 0.00 | 0.00 | 70 | 1018.7 |
| 20260507161813 | 66 | 180 | 0.9 | 3.5 | 0.00 | 0.00 | 0.00 | 73 | 1018.8 |
| 20260507160816 | 66 | 137 | 3.5 | 4.3 | 0.00 | 0.00 | 0.00 | 73 | 1018.8 |
| 20260507155813 | 66 | 182 | 3.5 | 5.2 | 0.00 | 0.00 | 0.00 | 73 | 1018.8 |
| 20260507154831 | 65 | 204 | 1.7 | 5.2 | 0.00 | 0.00 | 0.00 | 74 | 1018.9 |
| 20260507153813 | 64 | 137 | 0.9 | 6.1 | 0.00 | 0.00 | 0.00 | 75 | 1018.9 |
| 20260507152810 | 64 | 189 | 2.6 | 5.2 | 0.00 | 0.00 | 0.00 | 76 | 1018.8 |
| 20260507151809 | 63 | 115 | 0.0 | 5.2 | 0.00 | 0.00 | 0.00 | 78 | 1018.9 |
| 20260507150811 | 62 | 196 | 2.6 | 5.2 | 0.00 | 0.00 | 0.00 | 80 | 1018.9 |
| 20260507145808 | 61 | 199 | 1.7 | 2.6 | 0.00 | 0.00 | 0.00 | 82 | 1018.9 |
| 20260507144811 | 60 | 197 | 0.9 | 3.5 | 0.00 | 0.00 | 0.00 | 85 | 1018.9 |
| 20260507143810 | 59 | 163 | 1.7 | 5.2 | 0.00 | 0.00 | 0.00 | 87 | 1018.9 |
| 20260507142828 | 58 | 108 | 2.6 | 3.5 | 0.00 | 0.00 | 0.00 | 89 | 1018.8 |
| 20260507141812 | 57 | 180 | 1.7 | 5.2 | 0.00 | 0.00 | 0.00 | 89 | 1018.8 |
| 20260507140836 | 56 | 176 | 1.7 | 6.1 | 0.00 | 0.00 | 0.00 | 89 | 1018.7 |
| 20260507135810 | 56 | 205 | 1.7 | 7.0 | 0.00 | 0.00 | 0.00 | 89 | 1018.7 |
| 20260507134834 | 56 | 134 | 1.7 | 4.3 | 0.00 | 0.00 | 0.00 | 90 | 1018.5 |
| 20260507133818 | 55 | 103 | 2.6 | 4.3 | 0.00 | 0.00 | 0.00 | 90 | 1018.4 |